Location: Sungai Apap
(2.6167°N, 113.3833°E)
Time: 16:05:59
(UTC+00:00)

Cosmos 1455 Rocket - Pass Details

Date: 25 May 2024
Orbit: 602 x 625 km, 82.5° (Epoch: 12 June)

Event Time Altitude Azimuth Distance (km) Brightness Sun altitude
Rises 21:09:18 0° 334° (NNW) 2,879 6.5 -16.3°
Reaches altitude 10° 21:11:51 10° 320° (NW) 1,979 5.5 -15.7°
Maximum altitude 21:15:21 24° 267° (W) 1,309 4.2 -14.9°
Enters shadow 21:15:35 23° 262° (W) 1,313 4.1 -14.8°
